Wind_Speed
30 29 29 29 30 31 32 33 34 34 35 35 34 34 34 33 37 39 37 37 39 40 41 41 41 39 35 33 33 32 33 35 39 40 41 44 48 51 51 50 49 49 48
30 29 28 30 31 33 34 35 36 36 36 36 35 36 34 35 39 38 36 39 40 40 40 39 37 34 32 31 31 32 34 34 36 38 40 44 48 50 50 48 47 48 49
30 28 29 30 32 34 35 37 38 38 37 37 36 35 34 38 40 38 37 39 39 39 38 36 34 31 31 31 32 31 30 32 36 40 42 46 50 50 50 50 51 50 51
32 30 31 31 32 34 36 38 39 39 39 38 37 37 37 39 39 36 37 39 38 36 35 34 31 31 31 31 30 28 29 32 36 40 44 47 51 50 51 54 54 53 52
33 31 31 32 35 36 38 40 40 40 40 40 40 39 38 37 36 35 38 37 36 34 33 32 31 31 32 32 28 29 32 35 39 43 46 49 51 52 53 54 58 57 55
34 32 31 35 38 37 40 41 40 41 42 43 42 41 35 35 35 37 37 36 34 34 33 32 32 33 33 31 30 32 36 39 42 46 50 51 50 51 53 56 58 60 62
34 32 34 37 37 37 41 41 41 42 42 45 44 38 32 34 37 37 35 34 34 34 33 33 34 35 34 32 33 35 38 41 44 48 50 49 49 50 53 56 58 59 59
35 36 38 39 39 38 41 42 42 42 44 45 43 32 34 36 36 35 34 35 34 33 34 34 36 38 36 35 36 37 40 42 45 49 51 50 50 50 52 56 59 60 57
41 42 42 42 37 37 41 43 42 41 45 41 30 34 37 35 34 34 34 35 35 35 36 37 39 40 39 39 40 41 42 43 45 49 50 50 48 48 51 55 56 58 56
45 42 44 38 37 38 41 43 40 39 33 31 35 36 35 33 34 34 34 36 37 37 39 40 41 41 42 41 42 42 43 43 47 50 50 50 47 47 48 52 55 55 52
45 45 36 33 33 36 37 34 32 29 32 35 34 33 32 32 33 33 35 38 38 40 41 41 41 41 42 43 44 44 44 45 48 50 52 51 48 46 46 48 51 51 48
31 27 27 27 30 32 30 27 29 32 33 31 30 30 30 31 32 34 37 39 40 41 42 42 42 43 43 45 45 45 45 48 50 53 52 51 48 45 46 46 47 47 43
22 24 28 30 28 27 28 30 31 30 28 28 29 30 31 33 34 37 39 41 42 44 43 43 44 45 45 46 47 49 49 51 54 56 53 50 47 46 45 45 45 45 40
26 26 27 28 28 29 29 27 26 26 27 29 32 34 35 37 38 39 40 42 45 46 45 47 47 48 48 49 50 50 51 54 56 55 53 50 48 46 44 44 45 45 39
25 26 27 27 26 25 24 24 26 27 30 32 35 37 39 39 40 42 43 45 46 47 47 48 49 50 51 52 52 52 54 56 56 53 52 49 46 45 43 42 43 43 38
24 25 25 24 24 25 26 28 30 32 35 37 39 40 40 41 42 44 45 45 46 47 50 51 50 52 52 54 56 59 59 57 56 55 53 49 46 44 42 39 41 40 35
24 24 25 26 27 29 29 32 35 38 40 42 42 42 42 42 43 44 46 46 46 49 50 52 54 55 57 61 61 61 60 58 57 55 52 48 46 42 40 37 38 35 32
26 27 29 30 32 34 35 38 41 43 44 44 43 42 43 43 45 46 45 45 47 49 51 54 57 60 60 60 61 61 59 58 56 53 49 45 44 41 37 35 34 32 31
31 32 33 34 36 38 40 41 43 44 44 44 43 43 44 46 44 43 43 46 49 51 55 58 58 59 60 61 60 60 59 57 54 49 45 41 40 37 35 33 30 29 30
34 36 37 37 38 40 40 41 42 42 42 42 42 45 44 41 41 43 46 49 52 55 56 57 59 60 60 59 59 57 55 52 49 45 40 38 36 33 32 29 26 26 27
37 38 39 39 40 41 41 40 40 39 39 42 42 39 39 41 43 46 49 52 54 55 57 58 57 57 56 55 54 51 48 45 41 38 36 35 31 29 29 25 23 24 25
36 36 36 37 38 38 38 38 37 38 38 36 37 39 42 44 47 50 52 55 57 58 57 54 51 49 48 48 46 43 39 34 31 31 31 28 26 25 24 21 21 22 23
34 34 34 35 35 35 35 35 33 32 34 36 38 41 44 47 50 52 54 55 54 52 49 45 42 40 40 37 34 30 26 23 24 27 25 24 22 21 20 19 19 20 21
35 36 36 35 34 32 31 31 32 34 36 38 41 44 46 48 50 52 51 47 44 42 40 37 35 32 29 26 24 20 17 17 20 21 21 20 19 18 17 17 18 19 19
35 35 33 32 30 31 32 33 34 37 39 41 42 44 45 46 46 44 40 37 34 34 32 31 29 26 23 21 18 16 14 14 15 18 18 17 15 16 16 16 17 17 17
33 33 33 33 34 34 33 34 37 38 39 39 40 41 42 41 39 35 32 30 29 28 26 26 25 22 20 17 15 13 12 13 15 16 15 14 14 14 15 15 16 16 16
Wind_Direction
230 231 235 240 245 247 247 250 254 259 263 267 272 276 282 293 300 303 302 303 306 308 309 309 310 312 312 313 314 315 316 316 316 317 317 315 313 310 309 308 307 306 305
228 233 237 243 248 249 250 253 257 260 263 268 272 277 287 297 301 301 301 304 306 308 307 308 309 310 311 312 313 314 315 317 319 322 325 324 322 318 314 311 309 309 308
232 236 244 245 249 250 252 255 258 261 265 269 273 279 291 297 301 298 300 303 305 305 305 306 307 309 309 310 311 312 315 319 322 325 329 328 326 322 316 311 311 311 310
232 241 243 244 249 251 252 255 258 262 266 269 273 281 292 298 297 295 299 300 302 301 303 304 304 305 307 308 308 310 316 319 322 325 328 327 326 322 316 314 313 313 313
238 244 244 245 244 249 255 256 259 263 266 268 274 282 293 294 291 296 295 297 297 299 301 301 302 304 303 305 304 308 313 317 320 321 323 323 323 320 316 316 315 316 318
242 244 244 245 246 249 258 258 260 263 266 269 274 283 290 287 290 292 292 293 294 297 298 298 300 300 301 301 301 307 311 314 316 316 316 317 319 317 315 316 319 320 321
242 240 242 245 250 253 256 258 261 263 264 269 273 283 284 284 289 288 288 290 292 294 294 295 296 297 298 296 298 303 306 310 312 312 312 316 314 315 315 318 320 322 323
238 239 243 244 247 249 255 258 260 259 262 268 276 282 281 285 284 284 285 286 290 290 290 291 293 294 293 292 294 298 303 308 311 310 312 312 313 314 316 319 321 322 322
237 238 241 247 246 248 254 257 256 258 262 270 278 278 282 281 280 280 282 286 286 287 288 289 291 291 290 292 295 299 302 306 307 309 312 311 312 312 313 316 320 321 321
237 234 246 242 245 251 252 255 253 258 269 275 276 278 279 279 277 279 282 283 285 286 286 287 291 292 293 294 296 299 301 304 304 307 308 309 309 309 311 315 320 321 319
236 244 243 251 256 254 255 257 260 269 269 272 276 276 277 278 278 279 280 283 284 284 285 289 293 294 293 292 294 298 301 300 302 305 307 308 306 307 308 313 318 320 316
245 248 253 258 257 253 263 265 262 266 270 271 273 275 277 278 279 280 281 282 283 284 286 290 293 293 294 294 294 296 298 298 301 304 305 305 305 303 305 311 316 317 314
265 266 258 253 261 257 258 263 264 265 268 272 274 276 279 279 280 281 281 284 285 286 290 292 292 293 296 298 296 294 295 297 299 301 302 302 302 300 304 308 314 315 313
252 251 250 252 256 260 261 260 262 268 273 276 278 280 280 281 282 284 284 284 285 287 288 289 293 295 297 297 296 294 294 294 296 298 298 299 300 299 302 306 312 313 311
252 254 258 261 260 257 258 263 268 272 275 277 278 278 279 282 284 284 286 285 284 283 286 289 292 294 295 295 294 291 291 293 295 295 295 296 297 298 299 303 310 311 310
264 266 265 259 257 260 264 269 271 273 276 277 278 279 280 282 283 286 286 285 284 285 287 288 289 292 292 291 289 291 292 292 292 292 292 292 292 294 295 300 307 307 307
268 267 266 266 268 269 269 272 273 273 274 276 279 279 278 280 283 285 286 286 285 287 288 291 292 292 291 291 291 292 291 291 290 289 287 287 287 289 291 297 304 304 305
271 272 273 273 272 271 272 274 274 275 276 278 278 278 280 284 287 287 285 287 289 290 291 290 290 291 292 292 292 291 290 288 286 284 283 282 282 284 288 294 300 300 303
273 273 274 274 270 268 271 273 274 275 275 276 277 280 286 288 287 288 289 289 288 288 288 290 292 292 292 292 291 289 287 284 282 279 277 275 276 280 285 291 295 297 302
271 272 272 271 270 270 272 275 275 274 273 275 279 284 285 286 288 289 288 288 289 291 292 293 293 294 295 294 291 288 285 282 278 274 271 269 271 276 281 286 289 296 301
269 269 270 271 272 274 275 274 273 274 275 279 282 284 286 288 287 288 289 290 291 292 293 295 297 297 296 295 293 289 284 279 273 268 264 263 267 272 278 280 287 295 300
272 273 273 273 273 273 273 274 275 276 278 281 284 286 287 288 290 292 293 294 295 296 297 298 298 299 299 298 295 290 283 274 267 261 258 261 264 271 272 278 287 294 300
277 277 276 276 277 278 278 278 279 280 283 285 286 289 292 294 296 296 296 297 298 298 298 299 302 303 304 304 301 294 281 269 260 258 258 258 264 266 269 278 286 294 300
279 279 279 279 279 278 279 280 281 283 285 288 291 293 296 297 299 299 299 299 297 297 298 302 307 308 310 308 302 294 280 265 259 258 256 259 261 261 269 278 286 293 297
282 280 278 276 276 277 279 281 284 287 289 290 293 296 299 301 302 302 300 299 300 301 300 305 307 306 308 305 300 292 280 269 261 258 260 259 256 262 269 277 285 291 295
281 279 277 277 280 278 279 283 286 287 290 293 297 301 304 306 305 301 299 300 303 305 305 303 303 303 302 301 299 293 282 271 265 262 258 255 257 261 270 279 286 290 293
Height
3103 3106 3108 3110 3111 3112 3113 3114 3115 3116 3116 3115 3115 3114 3111 3108 3106 3104 3101 3098 3095 3091 3088 3084 3081 3077 3074 3071 3068 3064 3061 3056 3053 3049 3045 3041 3034 3027 3022 3017 3010 3004 2999
3096 3099 3101 3103 3103 3104 3105 3107 3108 3108 3107 3107 3107 3105 3102 3100 3098 3096 3093 3090 3087 3084 3080 3076 3073 3070 3067 3064 3061 3058 3053 3049 3044 3040 3036 3031 3025 3018 3011 3005 3000 2994 2988
3089 3091 3092 3093 3095 3096 3097 3098 3099 3099 3099 3099 3098 3096 3093 3092 3090 3087 3084 3082 3079 3076 3072 3069 3066 3063 3060 3057 3054 3051 3046 3042 3037 3031 3027 3021 3015 3008 3002 2996 2989 2984 2977
3081 3082 3083 3084 3086 3088 3089 3090 3090 3091 3091 3090 3088 3087 3085 3083 3081 3078 3075 3074 3071 3068 3065 3062 3059 3056 3053 3051 3047 3044 3039 3034 3029 3023 3018 3013 3006 3000 2992 2983 2978 2972 2966
3072 3073 3075 3076 3077 3078 3079 3080 3081 3082 3081 3080 3079 3077 3076 3075 3073 3069 3067 3065 3062 3060 3057 3054 3052 3049 3046 3043 3040 3036 3032 3027 3021 3015 3010 3005 2998 2990 2982 2975 2964 2958 2955
3062 3064 3066 3066 3067 3068 3070 3071 3072 3072 3072 3071 3070 3068 3066 3066 3063 3061 3059 3057 3054 3052 3049 3046 3044 3042 3038 3035 3032 3028 3023 3017 3012 3007 3001 2995 2990 2980 2972 2964 2954 2946 2939
3052 3054 3056 3056 3057 3057 3060 3061 3062 3062 3061 3060 3059 3057 3057 3055 3054 3052 3050 3048 3047 3044 3041 3038 3036 3033 3030 3027 3023 3020 3015 3009 3003 2998 2992 2986 2979 2971 2962 2955 2947 2938 2930
3042 3044 3045 3045 3044 3046 3049 3050 3050 3050 3050 3050 3049 3048 3047 3046 3044 3043 3040 3039 3038 3035 3032 3030 3028 3024 3021 3018 3014 3010 3006 3000 2994 2989 2983 2977 2969 2961 2952 2943 2935 2927 2922
3031 3033 3032 3031 3032 3034 3037 3038 3038 3038 3039 3041 3038 3039 3038 3037 3034 3033 3031 3031 3028 3026 3023 3021 3018 3015 3011 3008 3005 3001 2997 2992 2987 2981 2974 2967 2960 2952 2944 2936 2929 2919 2911
3019 3019 3020 3019 3021 3024 3026 3027 3027 3029 3029 3029 3030 3030 3029 3028 3025 3024 3022 3020 3019 3017 3014 3012 3009 3005 3001 2997 2994 2989 2986 2982 2977 2973 2966 2959 2952 2945 2937 2928 2919 2910 2902
3007 3008 3009 3010 3012 3015 3017 3018 3019 3019 3021 3022 3021 3021 3019 3018 3016 3014 3012 3011 3010 3007 3005 3003 2999 2994 2990 2986 2981 2978 2974 2969 2966 2961 2955 2949 2942 2936 2929 2921 2913 2904 2895
2997 2999 3001 3002 3005 3008 3009 3010 3011 3012 3013 3012 3012 3011 3010 3009 3007 3005 3003 3001 2999 2997 2995 2992 2988 2984 2979 2974 2970 2966 2962 2957 2953 2948 2943 2937 2931 2926 2920 2913 2906 2898 2891
2990 2992 2994 2996 2998 3001 3002 3003 3003 3003 3004 3004 3003 3002 3001 2999 2997 2996 2993 2991 2988 2984 2983 2980 2975 2971 2967 2963 2958 2954 2949 2945 2939 2935 2930 2925 2920 2915 2910 2904 2898 2890 2885
2986 2988 2990 2992 2993 2994 2994 2994 2994 2994 2994 2994 2994 2993 2991 2990 2988 2985 2983 2980 2976 2973 2971 2967 2963 2959 2954 2951 2947 2941 2936 2931 2926 2922 2917 2913 2909 2905 2900 2893 2888 2881 2876
2981 2982 2983 2984 2985 2985 2986 2986 2986 2985 2984 2984 2983 2982 2980 2979 2977 2973 2971 2968 2964 2961 2956 2954 2950 2945 2942 2938 2933 2929 2923 2918 2913 2908 2904 2900 2897 2894 2890 2885 2878 2872 2866
2974 2975 2975 2976 2976 2977 2977 2977 2977 2975 2974 2973 2972 2971 2969 2967 2964 2961 2958 2955 2952 2948 2944 2941 2938 2934 2929 2924 2919 2914 2909 2904 2899 2894 2891 2887 2884 2882 2879 2876 2869 2863 2858
2967 2967 2968 2968 2969 2968 2968 2967 2967 2965 2964 2963 2961 2959 2958 2956 2952 2948 2945 2942 2939 2935 2930 2927 2923 2919 2914 2909 2903 2897 2892 2887 2883 2880 2877 2874 2872 2870 2868 2865 2860 2854 2851
2960 2961 2960 2960 2960 2959 2959 2957 2956 2954 2952 2951 2949 2947 2945 2941 2939 2936 2932 2929 2926 2921 2917 2912 2907 2903 2897 2891 2885 2880 2876 2871 2868 2865 2864 2862 2860 2859 2858 2855 2851 2846 2843
2952 2951 2951 2950 2949 2949 2948 2946 2944 2942 2940 2938 2936 2934 2932 2928 2925 2922 2919 2917 2913 2909 2904 2898 2893 2887 2881 2874 2868 2862 2857 2854 2851 2851 2850 2849 2848 2848 2848 2845 2842 2838 2835
2942 2941 2940 2939 2938 2937 2935 2934 2932 2930 2928 2926 2924 2922 2919 2916 2913 2910 2906 2903 2900 2895 2889 2882 2876 2869 2862 2855 2849 2844 2839 2837 2835 2836 2837 2837 2837 2838 2838 2836 2833 2831 2828
2931 2930 2929 2928 2926 2925 2923 2921 2920 2918 2917 2915 2912 2910 2907 2905 2902 2898 2894 2890 2885 2880 2873 2866 2858 2851 2844 2837 2831 2826 2822 2821 2821 2823 2825 2826 2828 2828 2828 2827 2825 2823 2821
2920 2919 2918 2916 2914 2913 2911 2909 2908 2906 2904 2902 2900 2897 2895 2892 2889 2885 2880 2875 2869 2863 2855 2849 2843 2836 2828 2821 2815 2809 2808 2808 2810 2812 2815 2817 2819 2820 2819 2819 2818 2816 2814
2909 2907 2906 2904 2903 2901 2899 2898 2897 2895 2893 2891 2889 2887 2884 2880 2875 2870 2864 2858 2852 2846 2839 2834 2829 2823 2816 2809 2803 2800 2799 2800 2803 2805 2808 2809 2811 2812 2812 2812 2811 2810 2808
2899 2897 2895 2893 2892 2890 2889 2887 2886 2885 2883 2881 2878 2875 2871 2867 2861 2855 2848 2843 2838 2833 2828 2823 2818 2813 2808 2803 2799 2795 2795 2796 2798 2799 2801 2803 2805 2806 2806 2806 2805 2803 2802
2888 2886 2885 2883 2881 2880 2879 2877 2876 2874 2872 2870 2867 2863 2858 2852 2846 2841 2835 2831 2828 2824 2819 2814 2810 2807 2803 2799 2796 2793 2793 2793 2794 2795 2797 2798 2800 2800 2800 2800 2799 2798 2797
2878 2876 2875 2873 2872 2870 2869 2868 2866 2864 2861 2857 2853 2849 2844 2838 2834 2829 2825 2822 2819 2815 2812 2808 2805 2802 2799 2796 2793 2792 2791 2791 2791 2792 2793 2794 2795 2795 2795 2794 2793 2793 2792